| time (UTC) | temp F | wind direction | speed knots | gust knots | rain 1hr in | rain 24hr in | rain mn in | humidity % | barometer mb |
| 20260906052334 | 74 | 89 | 0.0 | 1.7 | 0.00 | 0.00 | 0.00 | 86 | 1014.3 |
| 20260906051831 | 75 | 68 | 0.0 | 1.7 | 0.00 | 0.00 | 0.00 | 86 | 1014.7 |
| 20260906051330 | 75 | 43 | 1.7 | 1.7 | 0.00 | 0.00 | 0.00 | 86 | 1014.6 |
| 20260906050826 | 75 | 17 | 0.0 | 1.7 | 0.00 | 0.00 | 0.00 | 86 | 1014.4 |
| 20260906050321 | 75 | 58 | 0.9 | 0.9 | 0.00 | 0.00 | 0.00 | 86 | 1014.5 |
| 20260906045819 | 75 | 72 | 0.9 | 2.6 | 0.00 | 0.00 | 0.00 | 86 | 1014.6 |
| 20260906045314 | 75 | 68 | 0.9 | 0.9 | 0.00 | 0.00 | 0.00 | 86 | 1014.7 |
| 20260906044811 | 75 | 33 | 1.7 | 1.7 | 0.00 | 0.00 | 0.00 | 86 | 1014.4 |
| 20260906044305 | 76 | 89 | 0.0 | 1.7 | 0.00 | 0.00 | 0.00 | 86 | 1014.4 |
| 20260906043801 | 76 | 55 | 0.0 | 1.7 | 0.00 | 0.00 | 0.00 | 86 | 1014.4 |
| 20260906043257 | 76 | 28 | 0.9 | 0.9 | 0.00 | 0.00 | 0.00 | 86 | 1014.3 |
| 20260906042756 | 76 | 75 | 0.0 | 0.9 | 0.00 | 0.00 | 0.00 | 86 | 1014.3 |
| 20260906042256 | 76 | 69 | 0.9 | 0.9 | 0.00 | 0.00 | 0.00 | 86 | 1014.2 |
| 20260906041751 | 76 | 40 | 1.7 | 1.7 | 0.00 | 0.00 | 0.00 | 86 | 1014.3 |
| 20260906041246 | 76 | 103 | 1.7 | 1.7 | 0.00 | 0.00 | 0.00 | 86 | 1014.3 |
| 20260906040742 | 76 | 50 | 0.0 | 0.0 | 0.00 | 0.00 | 0.00 | 86 | 1014.3 |
| 20260906040237 | 76 | 73 | 0.9 | 1.7 | 0.00 | 0.00 | 0.00 | 85 | 1014.3 |
| 20260906035732 | 76 | 63 | 0.9 | 0.9 | 0.00 | 0.11 | 0.11 | 85 | 1014.2 |
| 20260906035228 | 76 | 354 | 0.0 | 1.7 | 0.00 | 0.11 | 0.11 | 85 | 1014.1 |
| 20260906034727 | 76 | 32 | 0.9 | 1.7 | 0.00 | 0.11 | 0.11 | 84 | 1014.2 |
| 20260906034223 | 76 | 32 | 0.0 | 1.7 | 0.00 | 0.11 | 0.11 | 84 | 1013.9 |
| 20260906033718 | 76 | 66 | 1.7 | 1.7 | 0.00 | 0.11 | 0.11 | 84 | 1014.2 |
| 20260906033218 | 77 | 102 | 1.7 | 1.7 | 0.00 | 0.11 | 0.11 | 84 | 1014.1 |
| 20260906032715 | 77 | 23 | 1.7 | 1.7 | 0.00 | 0.11 | 0.11 | 83 | 1013.8 |
| 20260906032215 | 77 | 33 | 0.0 | 1.7 | 0.00 | 0.11 | 0.11 | 83 | 1014.2 |
| 20260906031710 | 77 | 98 | 0.9 | 2.6 | 0.00 | 0.11 | 0.11 | 83 | 1014.2 |
| 20260906031206 | 77 | 54 | 0.9 | 1.7 | 0.00 | 0.11 | 0.11 | 83 | 1014.1 |
| 20260906030705 | 77 | 65 | 0.0 | 1.7 | 0.00 | 0.11 | 0.11 | 83 | 1014.2 |
| 20260906030200 | 77 | 110 | 0.0 | 2.6 | 0.00 | 0.11 | 0.11 | 83 | 1013.9 |
| 20260906025700 | 77 | 106 | 1.7 | 1.7 | 0.00 | 0.11 | 0.11 | 82 | 1013.7 |
| 20260906025159 | 77 | 106 | 1.7 | 1.7 | 0.00 | 0.11 | 0.11 | 82 | 1013.8 |
| 20260906024654 | 78 | 48 | 0.0 | 1.7 | 0.00 | 0.11 | 0.11 | 81 | 1013.9 |
| 20260906024153 | 78 | 39 | 1.7 | 1.7 | 0.00 | 0.11 | 0.11 | 81 | 1013.7 |
| 20260906023649 | 78 | 1 | 0.9 | 3.5 | 0.00 | 0.11 | 0.11 | 80 | 1013.9 |
| 20260906023149 | 78 | 98 | 0.9 | 1.7 | 0.00 | 0.11 | 0.11 | 79 | 1013.9 |
| 20260906022644 | 79 | 83 | 2.6 | 3.5 | 0.00 | 0.11 | 0.11 | 79 | 1013.8 |
| 20260906022140 | 79 | 43 | 1.7 | 1.7 | 0.00 | 0.11 | 0.11 | 78 | 1013.7 |
| 20260906021636 | 0 | 0.0 | 0.0 | 0.00 | 0.11 | 0.11 | 1013.5 | ||
| 20260906021134 | 0 | 0.0 | 0.0 | 0.00 | 0.11 | 0.11 | 1013.4 | ||
| 20260906020629 | 0 | 0.0 | 0.0 | 0.00 | 0.11 | 0.11 | 1013.5 | ||
| 20260906020123 | 80 | 85 | 0.0 | 1.7 | 0.00 | 0.11 | 0.11 | 74 | 1013.2 |
| 20260906015619 | 80 | 85 | 0.0 | 1.7 | 0.00 | 0.11 | 0.11 | 74 | 1013.5 |
| 20260906015117 | 80 | 25 | 0.0 | 0.9 | 0.00 | 0.11 | 0.11 | 74 | 1013.3 |
| 20260906014612 | 80 | 89 | 0.0 | 0.9 | 0.00 | 0.11 | 0.11 | 74 | 1013.1 |
| 20260906014109 | 80 | 75 | 0.0 | 0.0 | 0.00 | 0.11 | 0.11 | 74 | 1013.1 |
| 20260906013603 | 80 | 28 | 0.0 | 0.9 | 0.00 | 0.11 | 0.11 | 74 | 1013.0 |
| 20260906013059 | 80 | 89 | 0.0 | 0.9 | 0.00 | 0.11 | 0.11 | 74 | 1013.0 |
| 20260906012559 | 80 | 89 | 0.0 | 0.9 | 0.00 | 0.11 | 0.11 | 74 | 1012.6 |
| 20260906012059 | 0 | 0.0 | 0.0 | 0.00 | 0.11 | 0.11 | 1012.8 | ||
| 20260906011555 | 0 | 0.0 | 0.0 | 0.00 | 0.11 | 0.11 | 1012.7 | ||
| 20260906011054 | 0 | 0.0 | 0.0 | 0.00 | 0.11 | 0.11 | 1012.8 | ||
| 20260906010550 | 0 | 0.0 | 0.0 | 0.00 | 0.11 | 0.11 | 1012.7 | ||
| 20260906010046 | 0 | 0.0 | 0.0 | 0.00 | 0.11 | 0.11 | 1012.7 | ||
| 20260906005545 | 82 | 103 | 0.0 | 0.0 | 0.00 | 0.11 | 0.11 | 73 | 1012.5 |
| 20260906005044 | 82 | 103 | 0.0 | 0.0 | 0.00 | 0.11 | 0.11 | 73 | 1012.5 |
| 20260906004544 | 82 | 103 | 0.0 | 0.0 | 0.00 | 0.11 | 0.11 | 73 | 1012.4 |
| 20260906004039 | 82 | 116 | 0.0 | 0.9 | 0.00 | 0.11 | 0.11 | 72 | 1012.3 |
| 20260906003534 | 82 | 116 | 0.0 | 0.9 | 0.00 | 0.11 | 0.11 | 72 | 1012.2 |
| 20260906003030 | 83 | 117 | 0.0 | 0.0 | 0.00 | 0.11 | 0.11 | 70 | 1012.1 |
| 20260906002525 | 83 | 117 | 0.0 | 0.0 | 0.00 | 0.11 | 0.11 | 70 | 1012.2 |
| 20260906002019 | 83 | 89 | 0.0 | 0.9 | 0.00 | 0.11 | 0.11 | 70 | 1012.0 |
| 20260906001516 | 84 | 38 | 0.0 | 0.9 | 0.00 | 0.11 | 0.11 | 69 | 1012.1 |
| 20260906001015 | 84 | 110 | 1.7 | 1.7 | 0.00 | 0.11 | 0.11 | 68 | 1011.9 |
| 20260906000511 | 85 | 50 | 0.0 | 1.7 | 0.00 | 0.11 | 0.11 | 67 | 1012.0 |
| 20260906000006 | 85 | 65 | 0.0 | 0.9 | 0.00 | 0.11 | 0.11 | 66 | 1012.1 |
| 20260905235505 | 86 | 29 | 0.0 | 1.7 | 0.00 | 0.11 | 0.11 | 65 | 1012.0 |
| 20260905235000 | 86 | 56 | 0.0 | 0.9 | 0.00 | 0.11 | 0.11 | 65 | 1012.1 |
| 20260905234456 | 87 | 38 | 0.0 | 0.0 | 0.00 | 0.11 | 0.11 | 64 | 1012.1 |
| 20260905233955 | 87 | 142 | 0.0 | 1.7 | 0.00 | 0.11 | 0.11 | 63 | 1012.2 |
| 20260905233452 | 87 | 31 | 0.0 | 1.7 | 0.00 | 0.11 | 0.11 | 61 | 1012.2 |
| 20260905232950 | 87 | 35 | 0.0 | 0.9 | 0.00 | 0.11 | 0.11 | 61 | 1012.3 |
| 20260905232447 | 88 | 44 | 0.0 | 0.9 | 0.00 | 0.11 | 0.11 | 60 | 1012.1 |
| 20260905231942 | 88 | 37 | 0.0 | 0.9 | 0.00 | 0.11 | 0.11 | 59 | 1012.1 |
| 20260905231438 | 89 | 164 | 0.0 | 0.0 | 0.00 | 0.11 | 0.11 | 57 | 1011.9 |
| 20260905230934 | 89 | 350 | 0.0 | 0.9 | 0.00 | 0.11 | 0.11 | 55 | 1012.1 |
| 20260905230432 | 89 | 304 | 0.0 | 0.9 | 0.00 | 0.11 | 0.11 | 55 | 1012.1 |
| 20260905225931 | 89 | 103 | 0.0 | 0.0 | 0.00 | 0.11 | 0.11 | 54 | 1011.9 |
| 20260905225426 | 89 | 124 | 0.0 | 0.9 | 0.00 | 0.11 | 0.11 | 55 | 1012.1 |
| 20260905224921 | 89 | 103 | 0.0 | 0.0 | 0.00 | 0.11 | 0.11 | 57 | 1011.9 |
| 20260905224417 | 89 | 77 | 0.0 | 0.9 | 0.00 | 0.11 | 0.11 | 58 | 1011.9 |
| 20260905223916 | 90 | 255 | 1.7 | 2.6 | 0.00 | 0.11 | 0.11 | 59 | 1011.8 |
| 20260905223415 | 90 | 34 | 0.0 | 2.6 | 0.00 | 0.11 | 0.11 | 61 | 1011.6 |
| 20260905222914 | 90 | 197 | 0.0 | 2.6 | 0.00 | 0.11 | 0.11 | 60 | 1011.5 |
| 20260905222414 | 91 | 47 | 0.0 | 1.7 | 0.00 | 0.11 | 0.11 | 60 | 1011.8 |
| 20260905221909 | 91 | 53 | 0.0 | 1.7 | 0.00 | 0.11 | 0.11 | 59 | 1011.9 |
| 20260905221406 | 92 | 38 | 0.9 | 1.7 | 0.00 | 0.11 | 0.11 | 58 | 1011.9 |
| 20260905220902 | 90 | 53 | 0.0 | 1.7 | 0.00 | 0.11 | 0.11 | 60 | 1011.7 |
| 20260905220358 | 0 | 0.0 | 0.0 | 0.00 | 0.11 | 0.11 | 1011.8 | ||
| 20260905215857 | 0 | 0.0 | 0.0 | 0.00 | 0.11 | 0.11 | 1011.2 | ||
| 20260905215353 | 89 | 142 | 0.0 | 0.9 | 0.00 | 0.11 | 0.11 | 60 | 1011.2 |
| 20260905214849 | 89 | 142 | 0.0 | 0.9 | 0.00 | 0.11 | 0.11 | 60 | 1011.5 |
| 20260905214344 | 89 | 142 | 0.0 | 0.9 | 0.00 | 0.11 | 0.11 | 60 | 1011.7 |
| 20260905213839 | 89 | 0 | 0.0 | 0.0 | 0.00 | 0.11 | 0.11 | 61 | 1011.8 |
| 20260905213335 | 89 | 144 | 0.0 | 0.0 | 0.00 | 0.11 | 0.11 | 60 | 1012.1 |
| 20260905212830 | 0 | 0.0 | 0.0 | 0.00 | 0.11 | 0.11 | 1011.9 | ||
| 20260905212329 | 0 | 0.0 | 0.0 | 0.00 | 0.11 | 0.11 | 1011.7 | ||
| 20260905211824 | 0 | 0.0 | 0.0 | 0.00 | 0.11 | 0.11 | 1012.0 | ||
| 20260905211320 | 0 | 0.0 | 0.0 | 0.00 | 0.11 | 0.11 | 1011.7 | ||
| 20260905210816 | 0 | 0.0 | 0.0 | 0.00 | 0.11 | 0.11 | 1011.4 | ||
| 20260905210316 | 0 | 0.0 | 0.0 | 0.00 | 0.11 | 0.11 | 1012.0 | ||
| 20260905205814 | 0 | 0.0 | 0.0 | 0.00 | 0.11 | 0.11 | 1011.9 | ||
| 20260905205309 | 94 | 358 | 0.9 | 1.7 | 0.00 | 0.11 | 0.11 | 54 | 1011.9 |
| 20260905204808 | 94 | 358 | 0.9 | 1.7 | 0.00 | 0.11 | 0.11 | 54 | 1011.8 |
| 20260905204305 | 95 | 224 | 0.0 | 0.0 | 0.00 | 0.11 | 0.11 | 54 | 1012.2 |
| 20260905203803 | 95 | 156 | 0.0 | 0.0 | 0.00 | 0.11 | 0.11 | 55 | 1011.9 |
| 20260905203259 | 96 | 284 | 0.0 | 0.9 | 0.00 | 0.11 | 0.11 | 50 | 1012.1 |
| 20260905202755 | 96 | 322 | 0.0 | 0.0 | 0.00 | 0.11 | 0.11 | 53 | 1012.1 |
| 20260905202250 | 96 | 297 | 0.0 | 0.0 | 0.00 | 0.11 | 0.11 | 54 | 1012.1 |
| 20260905201745 | 95 | 107 | 0.0 | 1.7 | 0.00 | 0.11 | 0.11 | 51 | 1012.3 |
| 20260905201240 | 93 | 104 | 0.0 | 2.6 | 0.00 | 0.11 | 0.11 | 53 | 1012.2 |
| 20260905200735 | 94 | 264 | 0.0 | 2.6 | 0.00 | 0.11 | 0.11 | 52 | 1012.3 |
| 20260905200231 | 94 | 105 | 0.0 | 1.7 | 0.00 | 0.11 | 0.11 | 52 | 1012.4 |
| 20260905195729 | 94 | 32 | 0.0 | 0.9 | 0.00 | 0.11 | 0.11 | 53 | 1012.2 |
| 20260905195224 | 96 | 325 | 1.7 | 1.7 | 0.00 | 0.11 | 0.11 | 50 | 1012.3 |
| 20260905194720 | 97 | 283 | 0.0 | 1.7 | 0.00 | 0.11 | 0.11 | 52 | 1012.3 |
| 20260905194219 | 96 | 283 | 0.0 | 0.9 | 0.00 | 0.11 | 0.11 | 53 | 1012.6 |
| 20260905193718 | 94 | 125 | 1.7 | 1.7 | 0.00 | 0.11 | 0.11 | 53 | 1012.4 |
| 20260905193214 | 94 | 24 | 0.0 | 0.9 | 0.00 | 0.11 | 0.11 | 54 | 1012.6 |
| 20260905192709 | 94 | 283 | 0.0 | 1.7 | 0.00 | 0.11 | 0.11 | 52 | 1012.6 |
| 20260905192206 | 95 | 284 | 0.9 | 0.9 | 0.00 | 0.11 | 0.11 | 52 | 1012.4 |
| 20260905191705 | 95 | 105 | 0.9 | 2.6 | 0.00 | 0.11 | 0.11 | 51 | 1012.7 |
| 20260905191203 | 94 | 123 | 1.7 | 3.5 | 0.00 | 0.11 | 0.11 | 51 | 1012.5 |
| 20260905190702 | 94 | 319 | 0.9 | 1.7 | 0.00 | 0.11 | 0.11 | 51 | 1012.8 |
| 20260905190201 | 94 | 262 | 1.7 | 1.7 | 0.00 | 0.11 | 0.11 | 51 | 1012.9 |
| 20260905185700 | 94 | 32 | 0.0 | 1.7 | 0.00 | 0.11 | 0.11 | 54 | 1013.0 |
| 20260905185156 | 94 | 136 | 0.9 | 3.5 | 0.00 | 0.11 | 0.11 | 50 | 1013.1 |
| 20260905184655 | 93 | 168 | 0.0 | 1.7 | 0.00 | 0.11 | 0.11 | 51 | 1013.1 |
| 20260905184154 | 94 | 255 | 0.0 | 1.7 | 0.00 | 0.11 | 0.11 | 51 | 1013.5 |
| 20260905183654 | 94 | 293 | 0.0 | 2.6 | 0.00 | 0.11 | 0.11 | 53 | 1013.3 |
| 20260905183148 | 93 | 60 | 0.9 | 0.9 | 0.00 | 0.11 | 0.11 | 51 | 1013.4 |
| 20260905182648 | 93 | 249 | 0.0 | 1.7 | 0.00 | 0.11 | 0.11 | 50 | 1013.4 |
| 20260905182148 | 93 | 224 | 0.0 | 1.7 | 0.00 | 0.11 | 0.11 | 53 | 1013.4 |
| 20260905181644 | 93 | 261 | 1.7 | 1.7 | 0.00 | 0.11 | 0.11 | 51 | 1013.5 |
| 20260905181142 | 93 | 237 | 0.0 | 1.7 | 0.00 | 0.11 | 0.11 | 51 | 1013.5 |
| 20260905180637 | 93 | 191 | 1.7 | 2.6 | 0.00 | 0.11 | 0.11 | 49 | 1013.5 |
| 20260905180133 | 92 | 269 | 0.0 | 1.7 | 0.00 | 0.11 | 0.11 | 51 | 1013.5 |
| 20260905175632 | 92 | 293 | 0.0 | 0.9 | 0.00 | 0.11 | 0.11 | 55 | 1013.5 |
| 20260905175127 | 92 | 128 | 0.9 | 1.7 | 0.00 | 0.11 | 0.11 | 51 | 1013.7 |
| 20260905174623 | 91 | 317 | 0.9 | 2.6 | 0.00 | 0.11 | 0.11 | 54 | 1013.7 |
| 20260905174118 | 91 | 302 | 0.9 | 2.6 | 0.00 | 0.11 | 0.11 | 55 | 1013.9 |
| 20260905173614 | 90 | 349 | 0.0 | 1.7 | 0.00 | 0.11 | 0.11 | 55 | 1013.9 |
| 20260905173110 | 90 | 336 | 0.0 | 1.7 | 0.00 | 0.11 | 0.11 | 53 | 1014.1 |
| 20260905172608 | 89 | 19 | 0.0 | 0.9 | 0.00 | 0.11 | 0.11 | 58 | 1014.2 |
| 20260905172103 | 88 | 113 | 0.0 | 0.9 | 0.00 | 0.11 | 0.11 | 57 | 1014.3 |
| 20260905171600 | 87 | 199 | 1.7 | 2.6 | 0.00 | 0.11 | 0.11 | 55 | 1014.3 |
| 20260905171056 | 87 | 105 | 0.0 | 0.9 | 0.00 | 0.11 | 0.11 | 56 | 1014.4 |
| 20260905170552 | 87 | 93 | 0.0 | 4.3 | 0.00 | 0.11 | 0.11 | 58 | 1014.2 |
| 20260905170047 | 86 | 89 | 0.0 | 1.7 | 0.00 | 0.11 | 0.11 | 56 | 1014.3 |
| 20260905165542 | 86 | 219 | 0.0 | 1.7 | 0.00 | 0.11 | 0.11 | 57 | 1014.5 |
| 20260905165037 | 86 | 46 | 0.0 | 2.6 | 0.00 | 0.11 | 0.11 | 57 | 1014.8 |
| 20260905164537 | 85 | 283 | 0.0 | 1.7 | 0.00 | 0.11 | 0.11 | 58 | 1014.7 |
| 20260905164032 | 85 | 104 | 0.0 | 0.9 | 0.00 | 0.11 | 0.11 | 58 | 1014.6 |
| 20260905163528 | 85 | 23 | 1.7 | 1.7 | 0.00 | 0.11 | 0.11 | 60 | 1014.7 |
| 20260905163024 | 85 | 216 | 0.0 | 1.7 | 0.00 | 0.11 | 0.11 | 58 | 1014.7 |
| 20260905162520 | 85 | 106 | 0.9 | 0.9 | 0.00 | 0.11 | 0.11 | 60 | 1014.7 |
| 20260905162014 | 84 | 35 | 1.7 | 1.7 | 0.00 | 0.11 | 0.11 | 60 | 1014.8 |
| 20260905161514 | 84 | 307 | 0.9 | 1.7 | 0.00 | 0.11 | 0.11 | 59 | 1014.7 |
| 20260905161012 | 84 | 151 | 0.0 | 0.9 | 0.00 | 0.11 | 0.11 | 61 | 1014.8 |
| 20260905160511 | 83 | 227 | 0.0 | 0.0 | 0.00 | 0.11 | 0.11 | 62 | 1014.7 |
| 20260905160006 | 83 | 32 | 0.0 | 1.7 | 0.00 | 0.11 | 0.11 | 63 | 1015.0 |
| 20260905155505 | 83 | 32 | 0.0 | 2.6 | 0.00 | 0.11 | 0.11 | 63 | 1015.0 |
| 20260905155004 | 82 | 85 | 0.0 | 1.7 | 0.00 | 0.11 | 0.11 | 62 | 1014.9 |
| 20260905154459 | 82 | 85 | 0.0 | 1.7 | 0.00 | 0.11 | 0.11 | 62 | 1014.8 |
| 20260905153955 | 82 | 41 | 0.0 | 1.7 | 0.00 | 0.11 | 0.11 | 61 | 1014.9 |
| 20260905153451 | 82 | 233 | 0.0 | 1.7 | 0.00 | 0.11 | 0.11 | 63 | 1015.0 |
| 20260905152950 | 82 | 119 | 0.9 | 1.7 | 0.00 | 0.11 | 0.11 | 62 | 1015.0 |
| 20260905152450 | 82 | 124 | 1.7 | 1.7 | 0.00 | 0.11 | 0.11 | 64 | 1015.2 |
| 20260905151945 | 82 | 233 | 0.0 | 1.7 | 0.00 | 0.11 | 0.11 | 67 | 1015.0 |
| 20260905151441 | 81 | 154 | 0.0 | 3.5 | 0.00 | 0.11 | 0.11 | 66 | 1015.0 |
| 20260905150936 | 80 | 175 | 1.7 | 1.7 | 0.00 | 0.11 | 0.11 | 68 | 1014.9 |
| 20260905150436 | 79 | 124 | 0.0 | 0.9 | 0.00 | 0.11 | 0.11 | 71 | 1015.1 |
| 20260905145933 | 78 | 257 | 0.0 | 1.7 | 0.00 | 0.11 | 0.11 | 74 | 1014.9 |
| 20260905145433 | 78 | 150 | 0.0 | 2.6 | 0.00 | 0.11 | 0.11 | 72 | 1014.9 |
| 20260905144932 | 77 | 147 | 4.3 | 4.3 | 0.00 | 0.11 | 0.11 | 72 | 1014.9 |
| 20260905144428 | 77 | 356 | 0.0 | 1.7 | 0.00 | 0.11 | 0.11 | 75 | 1015.1 |
| 20260905143927 | 76 | 166 | 1.7 | 1.7 | 0.00 | 0.11 | 0.11 | 78 | 1015.2 |
| 20260905143426 | 75 | 77 | 0.0 | 3.5 | 0.02 | 0.11 | 0.11 | 79 | 1015.2 |
| 20260905142926 | 74 | 111 | 0.0 | 1.7 | 0.07 | 0.11 | 0.11 | 81 | 1015.3 |
| 20260905142426 | 74 | 223 | 0.9 | 1.7 | 0.07 | 0.11 | 0.11 | 83 | 1015.1 |
| 20260905141922 | 74 | 224 | 0.0 | 4.3 | 0.05 | 0.10 | 0.10 | 80 | 1015.3 |
| 20260905141416 | 73 | 122 | 0.9 | 3.5 | 0.07 | 0.09 | 0.09 | 80 | 1015.1 |
| 20260905140912 | 73 | 52 | 0.0 | 1.7 | 0.07 | 0.09 | 0.09 | 83 | 1015.4 |
| 20260905140407 | 73 | 96 | 0.0 | 1.7 | 0.05 | 0.08 | 0.08 | 83 | 1015.4 |
| 20260905135906 | 73 | 121 | 0.9 | 1.7 | 0.12 | 0.08 | 0.08 | 83 | 1015.3 |
| 20260905135401 | 73 | 152 | 1.7 | 2.6 | 0.14 | 0.07 | 0.07 | 84 | 1015.4 |
| 20260905134857 | 73 | 89 | 0.0 | 1.7 | 0.14 | 0.06 | 0.06 | 82 | 1015.3 |
| 20260905134356 | 73 | 97 | 0.9 | 2.6 | 0.14 | 0.05 | 0.05 | 81 | 1015.2 |
| 20260905133850 | 73 | 136 | 0.9 | 2.6 | 0.12 | 0.04 | 0.04 | 81 | 1015.3 |
| 20260905133346 | 74 | 168 | 0.9 | 1.7 | 0.14 | 0.02 | 0.02 | 80 | 1015.4 |
| 20260905132845 | 75 | 101 | 0.0 | 4.3 | 0.09 | 0.02 | 0.02 | 75 | 1015.5 |
| 20260905132341 | 76 | 30 | 1.7 | 1.7 | 0.00 | 0.00 | 0.00 | 72 | 1015.4 |
| 20260905131834 | 76 | 117 | 0.0 | 0.9 | 0.00 | 0.00 | 0.00 | 72 | 1015.4 |
| 20260905131330 | 76 | 117 | 0.0 | 0.9 | 0.00 | 0.00 | 0.00 | 72 | 1015.5 |
| 20260905130825 | 76 | 65 | 0.0 | 1.7 | 0.00 | 0.00 | 0.00 | 72 | 1015.3 |
| 20260905130323 | 76 | 243 | 0.0 | 1.7 | 0.00 | 0.00 | 0.00 | 70 | 1015.4 |
| 20260905125819 | 77 | 89 | 1.7 | 1.7 | 0.00 | 0.00 | 0.00 | 69 | 1015.3 |
| 20260905125315 | 77 | 122 | 2.6 | 2.6 | 0.00 | 0.00 | 0.00 | 69 | 1015.3 |
| 20260905124810 | 76 | 80 | 0.9 | 1.7 | 0.00 | 0.00 | 0.00 | 71 | 1015.3 |
| 20260905124306 | 74 | 89 | 0.0 | 1.7 | 0.00 | 0.00 | 0.00 | 75 | 1015.4 |
| 20260905123802 | 74 | 54 | 1.7 | 1.7 | 0.00 | 0.00 | 0.00 | 76 | 1015.1 |
| 20260905123259 | 73 | 26 | 1.7 | 2.6 | 0.00 | 0.00 | 0.00 | 76 | 1015.2 |
| 20260905122758 | 73 | 121 | 1.7 | 1.7 | 0.00 | 0.00 | 0.00 | 76 | 1015.4 |
| 20260905122257 | 73 | 73 | 1.7 | 1.7 | 0.00 | 0.00 | 0.00 | 77 | 1015.3 |
| 20260905121753 | 73 | 6 | 0.9 | 2.6 | 0.00 | 0.00 | 0.00 | 78 | 1015.4 |
| 20260905121250 | 73 | 92 | 1.7 | 1.7 | 0.00 | 0.00 | 0.00 | 78 | 1015.5 |
| 20260905120747 | 73 | 78 | 1.7 | 2.6 | 0.00 | 0.00 | 0.00 | 78 | 1015.3 |
| 20260905120242 | 73 | 93 | 0.9 | 2.6 | 0.00 | 0.00 | 0.00 | 78 | 1015.2 |
| 20260905115737 | 73 | 89 | 1.7 | 1.7 | 0.00 | 0.00 | 0.00 | 77 | 1015.1 |
| 20260905115237 | 73 | 101 | 1.7 | 1.7 | 0.00 | 0.00 | 0.00 | 77 | 1015.1 |
| 20260905114736 | 73 | 99 | 0.9 | 1.7 | 0.00 | 0.00 | 0.00 | 76 | 1015.3 |
| 20260905114235 | 73 | 64 | 0.9 | 1.7 | 0.00 | 0.00 | 0.00 | 77 | 1015.1 |
| 20260905113735 | 74 | 83 | 1.7 | 1.7 | 0.00 | 0.00 | 0.00 | 77 | 1014.9 |
| 20260905113231 | 74 | 25 | 0.9 | 2.6 | 0.00 | 0.00 | 0.00 | 76 | 1014.9 |
| 20260905112726 | 74 | 328 | 0.0 | 1.7 | 0.00 | 0.00 | 0.00 | 77 | 1015.0 |
| 20260905112226 | 74 | 110 | 2.6 | 2.6 | 0.00 | 0.00 | 0.00 | 76 | 1014.8 |
| 20260905111721 | 74 | 60 | 1.7 | 3.5 | 0.00 | 0.00 | 0.00 | 76 | 1014.7 |
| 20260905111221 | 75 | 89 | 1.7 | 1.7 | 0.00 | 0.00 | 0.00 | 75 | 1014.9 |
| 20260905110720 | 75 | 26 | 1.7 | 2.6 | 0.00 | 0.00 | 0.00 | 75 | 1015.0 |
| 20260905110215 | 76 | 40 | 1.7 | 4.3 | 0.00 | 0.00 | 0.00 | 74 | 1014.6 |
| 20260905105710 | 77 | 106 | 1.7 | 1.7 | 0.00 | 0.00 | 0.00 | 82 | 1014.5 |
| 20260905105209 | 77 | 106 | 2.6 | 2.6 | 0.00 | 0.00 | 0.00 | 84 | 1014.6 |
| 20260905104704 | 77 | 60 | 0.0 | 2.6 | 0.00 | 0.00 | 0.00 | 88 | 1014.4 |
| 20260905104200 | 0 | 0.0 | 0.0 | 0.00 | 0.00 | 0.00 | 1013.7 | ||
| 20260905103655 | 76 | 104 | 0.0 | 0.0 | 0.00 | 0.00 | 0.00 | 91 | 1013.7 |
| 20260905103150 | 76 | 104 | 0.0 | 0.0 | 0.00 | 0.00 | 0.00 | 91 | 1013.8 |
| 20260905102646 | 0 | 0.0 | 0.0 | 0.00 | 0.00 | 0.00 | 1013.6 | ||
| 20260905102143 | 0 | 0.0 | 0.0 | 0.00 | 0.00 | 0.00 | 1013.7 | ||
| 20260905101641 | 0 | 0.0 | 0.0 | 0.00 | 0.00 | 0.00 | 1013.4 | ||
| 20260905101139 | 0 | 0.0 | 0.0 | 0.00 | 0.00 | 0.00 | 1013.6 | ||
| 20260905100636 | 76 | 104 | 0.0 | 0.0 | 0.00 | 0.00 | 0.00 | 91 | 1013.3 |
| 20260905100131 | 76 | 104 | 0.0 | 0.0 | 0.00 | 0.00 | 0.00 | 91 | 1013.4 |
| 20260905095630 | 76 | 104 | 0.0 | 0.0 | 0.00 | 0.00 | 0.00 | 91 | 1013.6 |
| 20260905095126 | 76 | 104 | 0.0 | 0.0 | 0.00 | 0.00 | 0.00 | 90 | 1013.4 |
| 20260905094621 | 76 | 89 | 0.0 | 0.0 | 0.00 | 0.00 | 0.00 | 90 | 1013.5 |
| 20260905094120 | 76 | 117 | 0.0 | 0.0 | 0.00 | 0.00 | 0.00 | 89 | 1013.4 |
| 20260905093620 | 76 | 117 | 0.0 | 0.0 | 0.00 | 0.00 | 0.00 | 89 | 1013.2 |
| 20260905093117 | 76 | 62 | 0.0 | 0.0 | 0.00 | 0.00 | 0.00 | 89 | 1013.4 |
| 20260905092616 | 77 | 62 | 0.0 | 0.0 | 0.00 | 0.00 | 0.00 | 89 | 1013.3 |
| 20260905092112 | 77 | 117 | 0.0 | 0.0 | 0.00 | 0.00 | 0.00 | 89 | 1013.1 |
| 20260905091611 | 0 | 0.0 | 0.0 | 0.00 | 0.00 | 0.00 | 1013.4 | ||
| 20260905091106 | 0 | 0.0 | 0.0 | 0.00 | 0.00 | 0.00 | 1013.1 | ||
| 20260905090606 | 0 | 0.0 | 0.0 | 0.00 | 0.00 | 0.00 | 1013.5 | ||
| 20260905085600 | 77 | 89 | 0.0 | 0.0 | 0.00 | 0.00 | 0.00 | 89 | 1013.3 |
| 20260905085056 | 77 | 89 | 0.0 | 0.0 | 0.00 | 0.00 | 0.00 | 89 | 1013.4 |
| 20260905084555 | 77 | 89 | 0.0 | 0.0 | 0.00 | 0.00 | 0.00 | 89 | 1013.6 |
| 20260905084051 | 0 | 0.0 | 0.0 | 0.00 | 0.00 | 0.00 | 1013.5 | ||
| 20260905083545 | 77 | 103 | 0.0 | 0.0 | 0.00 | 0.00 | 0.00 | 87 | 1013.4 |
| 20260905083042 | 77 | 103 | 0.0 | 0.0 | 0.00 | 0.00 | 0.00 | 87 | 1013.2 |
| 20260905082537 | 77 | 103 | 0.0 | 0.0 | 0.00 | 0.00 | 0.00 | 87 | 1013.3 |
| 20260905082033 | 78 | 101 | 0.0 | 0.9 | 0.00 | 0.00 | 0.00 | 87 | 1013.3 |
| 20260905081527 | 78 | 91 | 0.9 | 0.9 | 0.00 | 0.00 | 0.00 | 87 | 1013.3 |
| 20260905081027 | 0 | 0.0 | 0.0 | 0.00 | 0.00 | 0.00 | 1013.1 | ||
| 20260905080527 | 0 | 0.0 | 0.0 | 0.00 | 0.00 | 0.00 | 1013.1 | ||
| 20260905080022 | 0 | 0.0 | 0.0 | 0.00 | 0.00 | 0.00 | 1012.7 | ||
| 20260905075520 | 77 | 104 | 0.0 | 0.0 | 0.00 | 0.00 | 0.00 | 87 | 1012.8 |
| 20260905075015 | 77 | 104 | 0.0 | 0.0 | 0.00 | 0.00 | 0.00 | 87 | 1012.6 |
| 20260905074509 | 0 | 0.0 | 0.0 | 0.00 | 0.00 | 0.00 | 1012.7 | ||
| 20260905074005 | 0 | 0.0 | 0.0 | 0.00 | 0.00 | 0.00 | 1012.7 | ||
| 20260905073500 | 0 | 0.0 | 0.0 | 0.00 | 0.00 | 0.00 | 1012.6 | ||
| 20260905072955 | 0 | 0.0 | 0.0 | 0.00 | 0.00 | 0.00 | 1012.9 | ||
| 20260905072449 | 78 | 107 | 0.0 | 0.0 | 0.00 | 0.00 | 0.00 | 86 | 1012.6 |
| 20260905071945 | 78 | 107 | 0.0 | 0.0 | 0.00 | 0.00 | 0.00 | 86 | 1012.7 |
| 20260905071442 | 78 | 66 | 0.0 | 0.0 | 0.00 | 0.00 | 0.00 | 86 | 1012.9 |
| 20260905070941 | 78 | 111 | 0.0 | 0.0 | 0.00 | 0.00 | 0.00 | 86 | 1012.7 |
| 20260905070438 | 78 | 111 | 0.0 | 0.0 | 0.00 | 0.00 | 0.00 | 86 | 1012.8 |
| 20260905065937 | 78 | 117 | 0.0 | 0.9 | 0.00 | 0.00 | 0.00 | 86 | 1012.8 |
| 20260905065435 | 78 | 103 | 0.0 | 0.0 | 0.00 | 0.00 | 0.00 | 86 | 1012.8 |
| 20260905064931 | 78 | 104 | 0.0 | 0.0 | 0.00 | 0.00 | 0.00 | 86 | 1013.0 |
| 20260905064426 | 0 | 0.0 | 0.0 | 0.00 | 0.00 | 0.00 | 1013.0 | ||
| 20260905063926 | 78 | 113 | 0.0 | 0.0 | 0.00 | 0.00 | 0.00 | 86 | 1013.2 |
| 20260905063421 | 78 | 113 | 0.0 | 0.0 | 0.00 | 0.00 | 0.00 | 86 | 1013.3 |
| 20260905062918 | 0 | 0.0 | 0.0 | 0.00 | 0.00 | 0.00 | 1013.4 | ||
| 20260905062412 | 0 | 0.0 | 0.0 | 0.00 | 0.00 | 0.00 | 1013.6 | ||
| 20260905061907 | 78 | 104 | 0.0 | 0.0 | 0.00 | 0.00 | 0.00 | 86 | 1013.6 |
| 20260905061407 | 78 | 104 | 0.0 | 0.0 | 0.00 | 0.00 | 0.00 | 86 | 1013.7 |
| 20260905060906 | 78 | 104 | 0.0 | 0.0 | 0.00 | 0.00 | 0.00 | 86 | 1013.5 |
| 20260905060403 | 78 | 75 | 0.0 | 0.0 | 0.00 | 0.00 | 0.00 | 86 | 1013.4 |
| 20260905055902 | 78 | 99 | 0.0 | 0.0 | 0.00 | 0.00 | 0.00 | 85 | 1013.7 |
| 20260905055357 | 78 | 129 | 0.0 | 0.0 | 0.00 | 0.00 | 0.00 | 85 | 1013.7 |
| 20260905054856 | 78 | 129 | 0.0 | 0.0 | 0.00 | 0.00 | 0.00 | 85 | 1013.9 |
| 20260905054353 | 0 | 0.0 | 0.0 | 0.00 | 0.00 | 0.00 | 1013.7 | ||
| 20260905053853 | 0 | 0.0 | 0.0 | 0.00 | 0.00 | 0.00 | 1013.8 | ||
| 20260905053353 | 0 | 0.0 | 0.0 | 0.00 | 0.00 | 0.00 | 1014.1 | ||
| 20260905052848 | 0 | 0.0 | 0.0 | 0.00 | 0.00 | 0.00 | 1013.9 |